{"data":{"norad_id":55573,"epoch":"2026-09-20T12:56:52.973664Z","epoch_age_seconds":96719,"freshness":"FRESH","line1":"1 55573U 23020E   26263.53950201 -.00000182  00000+0  29252-5 0  9992","line2":"2 55573  43.0047 348.1157 0001208 268.2209  91.8505 15.27577080198675","mean_motion":15.2757708,"eccentricity":0.0001208,"inclination_deg":43.0047,"raan_deg":348.1157,"arg_perigee_deg":268.2209,"mean_anomaly_deg":91.8505,"bstar":2.9252e-6,"rev_number":19867,"period_min":94.266928906789,"perigee_km":482.22900724742,"apogee_km":483.88667192067,"semimajor_km":6861.194839584,"source":"CELESTRAK","updated_at":"2026-09-21T09:00:33.263221Z"}}